Regional Weather Roundup
Issued by NWS Goodland, KS

Home | Current Version | Previous Version | Graphics & Text | Print | Product List | Glossary On
Versions: 1 2 3 4 5 6 7 8 9 10 11 12 13 14 15 16 17 18 19 20 21 22 23 24 25 26 27 28 29 30 31 32 33 34 35 36 37 38 39 40 41 42 43 44 45 46 47 48 49 50
000
ASUS43 KGLD 020059
RWRGLD

GOODLAND FORECAST AREA HOURLY WEATHER ROUNDUP
NATIONAL WEATHER SERVICE GOODLAND KS
600 PM MST SUN FEB 01 2015

...OFFICIAL OBSERVATIONS...

CITY           SKY/WX    TMP DP  RH WIND       PRES   REMARKS
GOODLAND KS    CLEAR     11   5  77 N14       30.25R WCI  -5
HILL CITY KS   CLEAR     12   4  70 N13       30.32R WCI  -3
IMPERIAL NEB   CLEAR      8   1  73 NW7       30.28R
MCCOOK NEB     CLEAR     11   1  64 NW15      30.32R WCI  -5
AKRON CO       CLEAR     13  10  88 SE3       30.18R
BURLINGTON CO  CLEAR     14   8  77 N7        30.23R
LIMON CO       CLEAR     11   8  88 CALM      30.17R
$$

...UNOFFICIAL OBSERVATIONS...

CITY           SKY/WX    TMP DP  RH WIND       PRES   REMARKS
COLBY KS       CLEAR     10   7  85 N12       30.29R WCI  -4
NORTON KS      CLEAR      9   0  66 NW17      30.30S WCI -10
YUMA CO          N/A     12   6  77 NE6         N/A
$$


USA.gov is the U.S. government's official web portal to all federal, state and local government web resources and services.